Columbus, MS

11:54 AM CST on December 07, 2016 (GMT -0600)
Golden Triangle Regional

Weather History for KGTR - October, 2012

Change the Weather History Date:

Tuesday, October 2, 2012

  Actual Average Record
Temperature  
Mean Temperature 65 °F -  
Max Temperature 73 °F 78 °F 91 °F (1998)
Min Temperature 57 °F 55 °F 42 °F (2003)
Growing Degree Days 15 (Base 50)    
Moisture  
Dew Point 56 °F    
Average Humidity 82    
Maximum Humidity 94    
Minimum Humidity 50    
Precipitation  
Precipitation 0.00 in - - ()
Sea Level Pressure  
Sea Level Pressure 29.84 in    
Wind  
Wind Speed 5 mph (NW)    
Max Wind Speed 9 mph    
Max Gust Speed -    
Visibility 9 miles    
Events      
Averages and records for this station are not official NWS values.
T = Trace of Precipitation, MM = Missing Value Source: NWS Daily Summary

Daily Weather History Graph

Daily Weather History Graph

Search for Another Location

Airport or City:

Trip Planner

Search our weather history database for the weather conditions in past years. The results will help you decide how hot, cold, wet, or windy it might be!

Date:

Astronomy

Oct. 02, 2012 Rise Set
Actual Time 6:49 AM CDT 6:36 PM CDT
Civil Twilight 6:24 AM CDT 7:01 PM CDT
Nautical Twilight 5:56 AM CDT 7:30 PM CDT
Astronomical Twilight 5:27 AM CDT 7:59 PM CDT
Moon 8:00 PM CDT (10/2) 9:06 AM CDT (10/2)
Length of Visible Light 12h 36m
Length of Day
11h 47m
Waning Gibbous, 94% of the Moon is Illuminated
Oct 2
Waning Gibbous
Oct 8
Last Quarter
Oct 15
New
Oct 21
First Quarter
Oct 29
Full

Hourly Weather History & Observations

Time (CDT) Temp. Dew Point Humidity Pressure Visibility Wind Dir Wind Speed Gust Speed Precip Events Conditions
12:15 AM 60.8 °F 57.2 °F 88% 29.70 in 10.0 mi NNW 6.9 mph - N/A   Overcast
12:35 AM 60.8 °F 57.2 °F 88% 29.70 in 10.0 mi NNW 8.1 mph - N/A   Overcast
12:55 AM 60.8 °F 57.2 °F 88% 29.71 in 10.0 mi NW 6.9 mph - N/A   Overcast
1:15 AM 60.8 °F 57.2 °F 88% 29.70 in 10.0 mi NNW 8.1 mph - N/A   Overcast
1:35 AM 60.8 °F 57.2 °F 88% 29.71 in 7.0 mi NNW 5.8 mph - N/A   Overcast
1:55 AM 60.8 °F 57.2 °F 88% 29.71 in 3.0 mi NW 4.6 mph - N/A   Overcast
2:15 AM 59.0 °F 57.2 °F 94% 29.72 in 3.0 mi NW 5.8 mph - N/A   Overcast
2:35 AM 59.0 °F 57.2 °F 94% 29.72 in 3.0 mi NW 3.5 mph - N/A   Overcast
2:55 AM 59.0 °F 57.2 °F 94% 29.72 in 5.0 mi NW 4.6 mph - N/A   Overcast
3:15 AM 59.0 °F 57.2 °F 94% 29.72 in 8.0 mi WNW 5.8 mph - N/A   Overcast
3:35 AM 59.0 °F 55.4 °F 88% 29.73 in 10.0 mi NW 5.8 mph - N/A   Overcast
4:15 AM 59.0 °F 55.4 °F 88% 29.74 in 10.0 mi WNW 5.8 mph - N/A   Overcast
4:35 AM 59.0 °F 55.4 °F 88% 29.74 in 10.0 mi WNW 4.6 mph - N/A   Overcast
4:55 AM 59.0 °F 55.4 °F 88% 29.74 in 10.0 mi WNW 5.8 mph - N/A   Overcast
5:15 AM 59.0 °F 55.4 °F 88% 29.75 in 10.0 mi WNW 4.6 mph - N/A   Overcast
5:35 AM 59.0 °F 55.4 °F 88% 29.76 in 10.0 mi WNW 5.8 mph - N/A   Overcast
5:50 AM 59.0 °F 55.4 °F 88% 29.76 in 10.0 mi WNW 5.8 mph - N/A   Overcast
6:45 AM 59.0 °F 55.4 °F 88% 29.79 in 10.0 mi NW 4.6 mph - N/A   Overcast
7:45 AM 57.2 °F 55.4 °F 94% 29.82 in 10.0 mi WNW 6.9 mph - N/A   Overcast
8:45 AM 59.0 °F 55.4 °F 88% 29.84 in 10.0 mi NW 8.1 mph - N/A   Overcast
9:45 AM 60.8 °F 55.4 °F 82% 29.86 in 10.0 mi WNW 6.9 mph - N/A   Mostly Cloudy
10:45 AM 66.2 °F 57.2 °F 73% 29.87 in 10.0 mi NW 6.9 mph - N/A   Mostly Cloudy
11:10 AM 66.2 °F 55.4 °F 68% 29.87 in 10.0 mi NW 4.6 mph - N/A   Scattered Clouds
11:45 AM 69.8 °F 57.2 °F 64% 29.87 in 10.0 mi NW 4.6 mph - N/A   Scattered Clouds
12:45 PM 71.6 °F 55.4 °F 57% 29.87 in 10.0 mi NNW 6.9 mph - N/A   Scattered Clouds
1:50 PM 71.6 °F 51.8 °F 50% 29.86 in 10.0 mi NNW 9.2 mph - N/A   Scattered Clouds
2:50 PM 73.4 °F 53.6 °F 50% 29.86 in 10.0 mi WNW 6.9 mph - N/A   Scattered Clouds
3:50 PM 73.4 °F 53.6 °F 50% 29.87 in 10.0 mi WNW 6.9 mph - N/A   Scattered Clouds
4:45 PM 73.4 °F 53.6 °F 50% 29.88 in 10.0 mi NW 5.8 mph - N/A   Partly Cloudy
5:45 PM 73.4 °F 53.6 °F 50% 29.89 in 10.0 mi WNW 4.6 mph - N/A   Clear
8:15 PM 62.6 °F 57.2 °F 82% 29.94 in 10.0 mi Calm Calm - N/A   Clear
8:35 PM 60.8 °F 55.4 °F 82% 29.95 in 10.0 mi Calm Calm - N/A   Clear
8:55 PM 60.8 °F 57.2 °F 88% 29.96 in 10.0 mi Calm Calm - N/A   Clear
9:15 PM 60.8 °F 55.4 °F 82% 29.97 in 10.0 mi Calm Calm - N/A   Clear
9:35 PM 60.8 °F 55.4 °F 82% 29.97 in 10.0 mi Calm Calm - N/A   Clear
9:55 PM 57.2 °F 55.4 °F 94% 29.98 in 10.0 mi Calm Calm - N/A   Clear
10:15 PM 57.2 °F 55.4 °F 94% 29.98 in 8.0 mi Calm Calm - N/A   Clear
10:35 PM 57.2 °F 55.4 °F 94% 29.99 in 10.0 mi SSW 3.5 mph - N/A   Partly Cloudy
10:55 PM 57.2 °F 55.4 °F 94% 29.99 in 10.0 mi Calm Calm - N/A   Scattered Clouds
11:15 PM 59.0 °F 55.4 °F 88% 30.00 in 10.0 mi Calm Calm - N/A   Partly Cloudy
11:35 PM 59.0 °F 55.4 °F 88% 30.00 in 10.0 mi SE 3.5 mph - N/A   Clear
11:55 PM 59.0 °F 55.4 °F 88% 30.00 in 10.0 mi Calm Calm - N/A   Clear